Retour au catalogue

FALCON 9 R/B

ActifMEO
NORAD 61184·ROCKET BODY·🇺🇸 United States

Lancé Sep 17, 2024 depuis Cape Canaveral Space Force Station

Loading…

Prochains Passages (prochaines 24 heures)

TLE

FraisSource: Space-Track

Époque: Sep 14, 2026, 04:12 UTC

1 61184U 24167C   26257.17533463  .00000010  00000-0  00000-0 0  9995
2 61184  55.1749 218.3499 0011058  15.6888 344.3021  1.72615514 12518

Suivez FALCON 9 R/B en temps réel avec AllMySat

Download on the App Store